User: anonymous
Location: Unspecified
(0.0000°N, 0.0000°E)
Time: 21:38:40
(UTC+00:00)
Language:

OPTUS D3 - Orbit

View from above orbital plane
View from above orbital plane
View from above satellite
View from above satellite

Ground track
Ground track

The orbit data is extracted from the following two-line orbital elements,

1 35756U 09044B   14204.85205897  .00000000  00000-0  10000-3 0  1040
2 35756 000.0504 041.7929 0003072 051.5265 310.8807 01.00267395 18060
Epoch (UTC): 23 July 2014 20:26:57
Eccentricity: 0.0003072
inclination: 0.0504°
perigee height: 35774 km
apogee height: 35800 km
right ascension of ascending node: 41.7929°
argument of perigee: 51.5265°
revolutions per day: 1.00267395
mean anomaly at epoch: 310.8807°
orbit number at epoch: 1806

The dashed part of the orbit path shows where the satellite is in the earth's shadow,  

DLR